TimeCDT,TemperatureF,Dew PointF,Humidity,Sea Level PressureIn,VisibilityMPH,Wind Direction,Wind SpeedMPH,Gust SpeedMPH,PrecipitationIn,Events,Conditions,WindDirDegrees,DateUTC
12:15 AM,58.5,57.4,96,30.11,0.5,NNW,6.9,-,N/A,Fog,Fog,340,2013-10-27 05:15:00
12:35 AM,59.0,57.9,96,30.11,0.5,NNW,6.9,-,N/A,Fog,Fog,340,2013-10-27 05:35:00
12:55 AM,58.6,57.6,96,30.11,1.0,NNW,10.4,-,N/A,,Overcast,340,2013-10-27 05:55:00
1:15 AM,58.3,57.4,97,30.11,1.0,North,9.2,-,N/A,,Overcast,350,2013-10-27 06:15:00
1:35 AM,58.1,57.2,97,30.10,2.0,North,8.1,-,N/A,,Overcast,350,2013-10-27 06:35:00
1:55 AM,57.6,56.7,97,30.10,2.0,North,6.9,-,N/A,,Overcast,350,2013-10-27 06:55:00
2:15 AM,57.4,56.5,97,30.10,1.2,North,6.9,-,N/A,,Overcast,360,2013-10-27 07:15:00
2:35 AM,57.2,56.3,97,30.10,2.0,North,8.1,-,N/A,,Overcast,360,2013-10-27 07:35:00
2:55 AM,57.2,56.3,97,30.10,4.0,NNW,4.6,-,N/A,,Overcast,340,2013-10-27 07:55:00
3:15 AM,57.2,55.9,96,30.10,2.5,North,4.6,-,N/A,,Overcast,360,2013-10-27 08:15:00
3:35 AM,57.2,56.3,97,30.10,2.0,North,4.6,-,N/A,,Overcast,360,2013-10-27 08:35:00
3:55 AM,56.5,55.4,96,30.10,5.0,North,8.1,-,N/A,,Overcast,350,2013-10-27 08:55:00
4:15 AM,56.3,54.9,95,30.10,7.0,North,5.8,-,N/A,,Overcast,360,2013-10-27 09:15:00
4:35 AM,56.5,55.4,96,30.10,5.0,North,6.9,-,N/A,,Overcast,350,2013-10-27 09:35:00
4:55 AM,56.5,55.4,96,30.09,4.0,North,5.8,-,N/A,,Overcast,10,2013-10-27 09:55:00
5:15 AM,56.5,55.4,96,30.10,4.0,North,6.9,-,N/A,,Overcast,360,2013-10-27 10:15:00
5:35 AM,56.7,55.4,96,30.10,4.0,North,4.6,-,N/A,,Overcast,360,2013-10-27 10:35:00
5:55 AM,56.8,55.6,96,30.10,4.0,NNW,4.6,-,N/A,,Overcast,340,2013-10-27 10:55:00
6:15 AM,57.2,55.8,95,30.10,4.0,NNW,6.9,-,N/A,,Overcast,340,2013-10-27 11:15:00
6:35 AM,57.2,55.9,96,30.10,2.5,NNW,4.6,-,N/A,,Overcast,340,2013-10-27 11:35:00
6:55 AM,57.2,56.1,96,30.10,3.0,North,4.6,-,N/A,,Overcast,350,2013-10-27 11:55:00
7:15 AM,57.4,56.3,96,30.10,3.0,North,4.6,-,N/A,,Overcast,350,2013-10-27 12:15:00
7:35 AM,57.4,55.9,95,30.11,3.0,NNW,6.9,-,N/A,,Overcast,340,2013-10-27 12:35:00
7:55 AM,57.6,55.4,92,30.11,7.0,NNW,5.8,-,N/A,,Overcast,340,2013-10-27 12:55:00
8:15 AM,57.6,54.7,90,30.11,7.0,NW,4.6,-,N/A,,Overcast,320,2013-10-27 13:15:00
8:35 AM,57.4,54.1,89,30.11,7.0,NNW,4.6,-,N/A,,Overcast,340,2013-10-27 13:35:00
8:55 AM,57.4,54.5,90,30.12,7.0,NNW,5.8,-,N/A,,Overcast,330,2013-10-27 13:55:00
9:15 AM,57.6,54.0,88,30.13,7.0,NW,5.8,-,N/A,,Overcast,310,2013-10-27 14:15:00
9:35 AM,57.7,53.8,87,30.14,7.0,NW,4.6,-,N/A,,Overcast,310,2013-10-27 14:35:00
9:55 AM,57.7,53.6,86,30.15,7.0,WNW,4.6,-,N/A,,Overcast,300,2013-10-27 14:55:00
10:15 AM,58.1,52.7,82,30.15,10.0,NW,4.6,-,N/A,,Overcast,310,2013-10-27 15:15:00
10:35 AM,58.3,52.3,81,30.15,10.0,Calm,Calm,-,N/A,,Overcast,0,2013-10-27 15:35:00
10:55 AM,58.6,52.3,80,30.15,10.0,Calm,Calm,-,N/A,,Overcast,0,2013-10-27 15:55:00
11:15 AM,59.7,52.3,77,30.15,10.0,Calm,Calm,-,N/A,,Overcast,0,2013-10-27 16:15:00
11:35 AM,60.6,52.7,75,30.15,10.0,WNW,4.6,-,N/A,,Overcast,290,2013-10-27 16:35:00
11:55 AM,61.2,52.3,73,30.14,10.0,West,4.6,-,N/A,,Overcast,280,2013-10-27 16:55:00
12:15 PM,63.5,52.7,68,30.13,10.0,West,3.5,-,N/A,,Overcast,270,2013-10-27 17:15:00
12:35 PM,63.9,53.6,69,30.13,10.0,Calm,Calm,-,N/A,,Mostly Cloudy,0,2013-10-27 17:35:00
12:55 PM,65.8,53.6,65,30.12,10.0,NW,3.5,-,N/A,,Mostly Cloudy,320,2013-10-27 17:55:00
1:15 PM,66.4,52.9,62,30.10,10.0,Calm,Calm,-,N/A,,Scattered Clouds,0,2013-10-27 18:15:00
1:35 PM,66.6,52.5,61,30.09,10.0,NW,3.5,-,N/A,,Clear,320,2013-10-27 18:35:00
1:55 PM,65.8,51.8,60,30.08,10.0,Calm,Calm,-,N/A,,Scattered Clouds,0,2013-10-27 18:55:00
2:15 PM,66.7,51.6,58,30.07,10.0,Calm,Calm,-,N/A,,Mostly Cloudy,0,2013-10-27 19:15:00
2:35 PM,67.5,51.6,57,30.05,10.0,Calm,Calm,-,N/A,,Overcast,0,2013-10-27 19:35:00
2:55 PM,68.5,51.3,54,30.04,10.0,West,4.6,-,N/A,,Overcast,270,2013-10-27 19:55:00
3:15 PM,68.5,51.3,54,30.03,10.0,Calm,Calm,-,N/A,,Mostly Cloudy,0,2013-10-27 20:15:00
3:35 PM,68.9,51.6,54,30.03,10.0,South,4.6,-,N/A,,Scattered Clouds,190,2013-10-27 20:35:00
3:55 PM,71.2,51.8,50,30.02,10.0,SSW,5.8,-,N/A,,Scattered Clouds,200,2013-10-27 20:55:00
4:15 PM,71.2,52.2,51,30.01,10.0,SSE,8.1,-,N/A,,Scattered Clouds,160,2013-10-27 21:15:00
4:35 PM,70.9,51.8,51,30.01,10.0,SSE,3.5,-,N/A,,Clear,160,2013-10-27 21:35:00
4:55 PM,70.0,52.0,53,30.01,10.0,South,4.6,-,N/A,,Scattered Clouds,170,2013-10-27 21:55:00
5:15 PM,69.8,52.0,53,30.00,10.0,SSE,5.8,-,N/A,,Clear,160,2013-10-27 22:15:00
5:35 PM,69.6,52.2,54,30.00,10.0,SE,3.5,-,N/A,,Clear,140,2013-10-27 22:35:00
5:55 PM,68.9,52.3,55,29.99,10.0,SE,4.6,-,N/A,,Clear,140,2013-10-27 22:55:00
6:15 PM,67.5,53.1,60,29.99,10.0,SE,4.6,-,N/A,,Clear,140,2013-10-27 23:15:00
6:35 PM,65.7,53.4,65,29.99,10.0,SE,3.5,-,N/A,,Clear,130,2013-10-27 23:35:00
6:55 PM,63.5,53.6,70,29.99,10.0,SE,4.6,-,N/A,,Clear,140,2013-10-27 23:55:00
7:15 PM,62.2,54.1,75,29.99,10.0,SE,4.6,-,N/A,,Clear,130,2013-10-28 00:15:00
7:35 PM,61.2,54.5,79,30.00,10.0,SE,4.6,-,N/A,,Clear,130,2013-10-28 00:35:00
7:55 PM,60.4,55.0,82,30.00,10.0,SE,4.6,-,N/A,,Clear,130,2013-10-28 00:55:00
8:15 PM,59.9,55.2,84,30.01,10.0,SE,4.6,-,N/A,,Clear,130,2013-10-28 01:15:00
8:35 PM,59.4,55.2,86,30.01,10.0,SE,4.6,-,N/A,,Clear,130,2013-10-28 01:35:00
8:55 PM,59.0,55.4,88,30.01,10.0,SE,4.6,-,N/A,,Clear,130,2013-10-28 01:55:00
9:15 PM,58.6,55.0,88,30.01,10.0,SE,4.6,-,N/A,,Clear,130,2013-10-28 02:15:00
9:35 PM,58.1,54.9,89,30.01,10.0,ESE,5.8,-,N/A,,Clear,120,2013-10-28 02:35:00
9:55 PM,58.1,54.7,88,30.01,10.0,SE,5.8,-,N/A,,Clear,130,2013-10-28 02:55:00
10:15 PM,57.9,54.7,89,30.01,10.0,SE,5.8,-,N/A,,Clear,130,2013-10-28 03:15:00
10:35 PM,57.4,54.5,90,30.01,10.0,SE,5.8,-,N/A,,Clear,130,2013-10-28 03:35:00
10:55 PM,57.2,54.5,91,30.01,10.0,SE,5.8,-,N/A,,Clear,130,2013-10-28 03:55:00
11:15 PM,56.8,54.3,91,30.01,10.0,SE,3.5,-,N/A,,Clear,130,2013-10-28 04:15:00
11:35 PM,56.8,54.5,92,30.01,10.0,SE,4.6,-,N/A,,Clear,140,2013-10-28 04:35:00
11:55 PM,56.5,54.5,93,30.01,10.0,SSE,3.5,-,N/A,,Clear,150,2013-10-28 04:55:00